Location: Helsinki
(60.1699°N, 24.9384°E)
Time: 03:37:54
(UTC+02:00)

Transit 4A - Pass Details

Date: 02 November 2020
Orbit: 862 x 982 km, 66.8° (Epoch: 25 November)

Event Time Altitude Azimuth Distance (km) Brightness Sun altitude
Rises 21:42:07 0° 308° (NW) 3,695 12.0 -38.1°
Reaches altitude 10° 21:44:42 10° 308° (NW) 2,748 11.1 -38.3°
Enters shadow 21:48:28 38° 305° (NW) 1,469 9.2 -38.7°
Maximum altitude 21:51:10 82° 222° (SW) 997 - -38.9°
Drops below altitude 10° 21:57:32 10° 136° (SE) 2,710 - -39.4°
Sets 22:00:04 0° 136° (SE) 3,641 - -39.6°
